| time (UTC) | temp F | wind direction | speed MPH | gust MPH | rain 1hr in | rain 24hr in | rain mn in | humidity % | barometer mb |
| 20260509093607 | 43 | 360 | 0.0 | 0.0 | 0.00 | 0.00 | 0.00 | 98 | 1022.5 |
| 20260509093107 | 43 | 360 | 0.0 | 0.0 | 0.00 | 0.00 | 0.00 | 98 | 1022.2 |
| 20260509092607 | 42 | 360 | 0.0 | 0.0 | 0.00 | 0.00 | 0.00 | 98 | 1022.3 |
| 20260509091907 | 42 | 360 | 0.0 | 0.0 | 0.00 | 0.00 | 0.00 | 98 | 1022.4 |
| 20260509091407 | 42 | 360 | 0.0 | 1.0 | 0.00 | 0.00 | 0.00 | 98 | 1022.4 |
| 20260509090306 | 42 | 360 | 0.0 | 1.0 | 0.00 | 0.00 | 0.00 | 98 | 1022.5 |
| 20260509085807 | 42 | 360 | 0.0 | 1.0 | 0.00 | 0.00 | 0.00 | 98 | 1022.6 |
| 20260509085307 | 42 | 360 | 1.0 | 1.0 | 0.00 | 0.00 | 0.00 | 97 | 1022.5 |
| 20260509084807 | 42 | 360 | 1.0 | 1.0 | 0.00 | 0.00 | 0.00 | 97 | 1022.5 |
| 20260509084307 | 42 | 360 | 0.0 | 1.0 | 0.00 | 0.00 | 0.00 | 97 | 1022.5 |
| 20260509083807 | 42 | 360 | 0.0 | 1.0 | 0.00 | 0.00 | 0.00 | 96 | 1022.6 |
| 20260509083307 | 42 | 360 | 0.0 | 1.0 | 0.00 | 0.00 | 0.00 | 97 | 1022.7 |
| 20260509082806 | 43 | 360 | 0.0 | 1.0 | 0.00 | 0.00 | 0.00 | 97 | 1022.6 |
| 20260509082307 | 43 | 360 | 0.0 | 1.0 | 0.00 | 0.00 | 0.00 | 97 | 1022.7 |
| 20260509081407 | 43 | 360 | 1.0 | 1.0 | 0.00 | 0.00 | 0.00 | 97 | 1022.7 |
| 20260509080907 | 43 | 360 | 1.0 | 1.0 | 0.00 | 0.00 | 0.00 | 97 | 1022.6 |
| 20260509080407 | 43 | 360 | 0.0 | 1.0 | 0.00 | 0.00 | 0.00 | 97 | 1022.8 |
| 20260509075907 | 43 | 360 | 0.0 | 1.0 | 0.00 | 0.00 | 0.00 | 97 | 1022.7 |
| 20260509075407 | 43 | 360 | 0.0 | 2.0 | 0.00 | 0.00 | 0.00 | 97 | 1022.6 |
| 20260509074907 | 43 | 360 | 1.0 | 2.0 | 0.00 | 0.00 | 0.00 | 97 | 1022.7 |
| 20260509074407 | 43 | 360 | 0.0 | 1.0 | 0.00 | 0.00 | 0.00 | 96 | 1022.8 |
| 20260509073907 | 44 | 360 | 0.0 | 1.0 | 0.00 | 0.00 | 0.00 | 96 | 1022.8 |
| 20260509073407 | 44 | 360 | 0.0 | 0.0 | 0.00 | 0.00 | 0.00 | 96 | 1022.9 |
| 20260509072707 | 44 | 360 | 0.0 | 1.0 | 0.00 | 0.00 | 0.00 | 97 | 1022.8 |
| 20260509072007 | 44 | 360 | 1.0 | 1.0 | 0.00 | 0.00 | 0.00 | 97 | 1022.7 |
| 20260509071507 | 44 | 360 | 0.0 | 1.0 | 0.00 | 0.00 | 0.00 | 96 | 1022.8 |
| 20260509070808 | 44 | 360 | 0.0 | 0.0 | 0.00 | 0.00 | 0.00 | 96 | 1022.8 |
| 20260509070307 | 44 | 360 | 0.0 | 0.0 | 0.00 | 0.00 | 0.00 | 96 | 1022.7 |
| 20260509065807 | 45 | 360 | 0.0 | 0.0 | 0.00 | 0.00 | 0.00 | 96 | 1022.8 |
| 20260509065307 | 45 | 360 | 0.0 | 0.0 | 0.00 | 0.00 | 0.00 | 96 | 1022.8 |
| 20260509064807 | 45 | 360 | 0.0 | 0.0 | 0.00 | 0.00 | 0.00 | 96 | 1022.8 |
| 20260509064307 | 45 | 360 | 0.0 | 2.0 | 0.00 | 0.00 | 0.00 | 96 | 1022.9 |
| 20260509063807 | 45 | 360 | 0.0 | 2.0 | 0.00 | 0.00 | 0.00 | 95 | 1022.9 |
| 20260509063307 | 45 | 360 | 0.0 | 2.0 | 0.00 | 0.00 | 0.00 | 95 | 1022.9 |
| 20260509062807 | 46 | 360 | 2.0 | 2.0 | 0.00 | 0.00 | 0.00 | 96 | 1022.9 |
| 20260509062308 | 46 | 360 | 0.0 | 1.0 | 0.00 | 0.00 | 0.00 | 96 | 1023.0 |
| 20260509061807 | 46 | 360 | 0.0 | 1.0 | 0.00 | 0.00 | 0.00 | 96 | 1023.0 |
| 20260509061107 | 46 | 360 | 1.0 | 1.0 | 0.00 | 0.00 | 0.00 | 95 | 1022.8 |
| 20260509060607 | 47 | 360 | 0.0 | 1.0 | 0.00 | 0.00 | 0.00 | 96 | 1022.8 |
| 20260509060107 | 47 | 360 | 1.0 | 1.0 | 0.00 | 0.00 | 0.00 | 95 | 1022.8 |
| 20260509055606 | 47 | 360 | 0.0 | 1.0 | 0.00 | 0.00 | 0.00 | 95 | 1022.8 |
| 20260509055107 | 47 | 360 | 0.0 | 1.0 | 0.00 | 0.00 | 0.00 | 94 | 1022.8 |
| 20260509054607 | 47 | 360 | 0.0 | 0.0 | 0.00 | 0.00 | 0.00 | 94 | 1022.7 |
| 20260509054008 | 48 | 360 | 0.0 | 0.0 | 0.00 | 0.00 | 0.00 | 94 | 1022.7 |
| 20260509053506 | 48 | 360 | 0.0 | 0.0 | 0.00 | 0.00 | 0.00 | 93 | 1022.7 |
| 20260509053007 | 48 | 360 | 0.0 | 0.0 | 0.00 | 0.00 | 0.00 | 94 | 1022.7 |
| 20260509052507 | 48 | 360 | 0.0 | 0.0 | 0.00 | 0.00 | 0.00 | 94 | 1022.7 |
| 20260509052007 | 49 | 360 | 0.0 | 0.0 | 0.00 | 0.00 | 0.00 | 94 | 1022.7 |
| 20260509051507 | 49 | 360 | 0.0 | 1.0 | 0.00 | 0.00 | 0.00 | 94 | 1022.7 |
| 20260509051007 | 49 | 360 | 0.0 | 1.0 | 0.00 | 0.00 | 0.00 | 94 | 1022.7 |
| 20260509050507 | 50 | 360 | 0.0 | 1.0 | 0.00 | 0.00 | 0.00 | 94 | 1022.6 |
| 20260509045806 | 50 | 360 | 0.0 | 1.0 | 0.00 | 0.00 | 0.00 | 93 | 1022.6 |
| 20260509045107 | 50 | 360 | 0.0 | 1.0 | 0.00 | 0.00 | 0.00 | 93 | 1022.5 |
| 20260509044607 | 50 | 360 | 0.0 | 1.0 | 0.00 | 0.00 | 0.00 | 93 | 1022.5 |
| 20260509044107 | 50 | 187 | 0.0 | 1.0 | 0.00 | 0.00 | 0.00 | 93 | 1022.4 |
| 20260509043607 | 51 | 360 | 1.0 | 2.0 | 0.00 | 0.00 | 0.00 | 92 | 1022.4 |
| 20260509043107 | 51 | 360 | 0.0 | 2.0 | 0.00 | 0.00 | 0.00 | 92 | 1022.3 |
| 20260509042607 | 51 | 360 | 2.0 | 2.0 | 0.00 | 0.00 | 0.00 | 92 | 1022.3 |
| 20260509042107 | 51 | 360 | 0.0 | 1.0 | 0.00 | 0.00 | 0.00 | 92 | 1022.3 |
| 20260509041607 | 51 | 360 | 1.0 | 1.0 | 0.00 | 0.00 | 0.00 | 91 | 1022.3 |
| 20260509040907 | 52 | 360 | 1.0 | 1.0 | 0.00 | 0.00 | 0.00 | 88 | 1022.2 |
| 20260509040407 | 52 | 186 | 0.0 | 1.0 | 0.00 | 0.00 | 0.00 | 88 | 1022.0 |
| 20260509035907 | 52 | 186 | 1.0 | 1.0 | 0.00 | 0.00 | 0.00 | 88 | 1022.0 |
| 20260509035407 | 53 | 186 | 0.0 | 2.0 | 0.00 | 0.00 | 0.00 | 89 | 1022.0 |
| 20260509034907 | 53 | 186 | 1.0 | 2.0 | 0.00 | 0.00 | 0.00 | 89 | 1022.0 |
| 20260509034407 | 53 | 186 | 0.0 | 0.0 | 0.00 | 0.00 | 0.00 | 87 | 1021.9 |
| 20260509033907 | 54 | 186 | 0.0 | 1.0 | 0.00 | 0.00 | 0.00 | 86 | 1021.8 |
| 20260509033407 | 54 | 360 | 0.0 | 1.0 | 0.00 | 0.00 | 0.00 | 86 | 1021.8 |
| 20260509032907 | 54 | 360 | 0.0 | 2.0 | 0.00 | 0.00 | 0.00 | 86 | 1021.7 |
| 20260509032407 | 55 | 360 | 0.0 | 2.0 | 0.00 | 0.00 | 0.00 | 85 | 1021.8 |
| 20260509031907 | 55 | 360 | 2.0 | 2.0 | 0.00 | 0.00 | 0.00 | 85 | 1021.7 |
| 20260509031407 | 56 | 360 | 0.0 | 1.0 | 0.00 | 0.00 | 0.00 | 84 | 1021.7 |
| 20260509030707 | 56 | 186 | 0.0 | 2.0 | 0.00 | 0.00 | 0.00 | 83 | 1021.6 |
| 20260509030207 | 57 | 186 | 2.0 | 3.0 | 0.00 | 0.00 | 0.00 | 82 | 1021.5 |
| 20260509025707 | 57 | 192 | 1.0 | 3.0 | 0.00 | 0.00 | 0.00 | 82 | 1021.6 |
| 20260509025207 | 57 | 360 | 2.0 | 3.0 | 0.00 | 0.00 | 0.00 | 81 | 1021.6 |
| 20260509024507 | 58 | 360 | 1.0 | 4.0 | 0.00 | 0.00 | 0.00 | 81 | 1021.6 |
| 20260509024007 | 58 | 213 | 2.0 | 4.0 | 0.00 | 0.00 | 0.00 | 80 | 1021.5 |
| 20260509023507 | 59 | 207 | 3.0 | 5.0 | 0.00 | 0.00 | 0.00 | 79 | 1021.4 |
| 20260509023009 | 59 | 226 | 2.0 | 5.0 | 0.00 | 0.00 | 0.00 | 78 | 1021.4 |
| 20260509022506 | 60 | 217 | 5.0 | 5.0 | 0.00 | 0.00 | 0.00 | 77 | 1021.4 |
| 20260509022007 | 60 | 207 | 4.0 | 7.0 | 0.00 | 0.00 | 0.00 | 77 | 1021.4 |
| 20260509021507 | 60 | 193 | 3.0 | 7.0 | 0.00 | 0.00 | 0.00 | 77 | 1021.3 |
| 20260509021007 | 60 | 227 | 7.0 | 7.0 | 0.00 | 0.00 | 0.00 | 76 | 1021.3 |
| 20260509020506 | 61 | 225 | 2.0 | 5.0 | 0.00 | 0.00 | 0.00 | 75 | 1021.4 |
| 20260509020007 | 61 | 213 | 4.0 | 6.0 | 0.00 | 0.00 | 0.00 | 75 | 1021.4 |
| 20260509015508 | 61 | 208 | 3.0 | 6.0 | 0.00 | 0.00 | 0.00 | 76 | 1021.4 |
| 20260509014907 | 61 | 190 | 3.0 | 4.0 | 0.00 | 0.00 | 0.00 | 78 | 1021.4 |
| 20260509014407 | 61 | 189 | 2.0 | 5.0 | 0.00 | 0.00 | 0.00 | 75 | 1021.5 |
| 20260509013907 | 61 | 360 | 2.0 | 5.0 | 0.00 | 0.00 | 0.00 | 76 | 1021.4 |
| 20260509013407 | 61 | 167 | 4.0 | 6.0 | 0.00 | 0.00 | 0.00 | 76 | 1021.5 |
| 20260509012907 | 61 | 360 | 4.0 | 6.0 | 0.00 | 0.00 | 0.00 | 75 | 1021.4 |
| 20260509012407 | 61 | 360 | 5.0 | 5.0 | 0.00 | 0.00 | 0.00 | 75 | 1021.5 |
| 20260509011907 | 61 | 173 | 5.0 | 5.0 | 0.00 | 0.00 | 0.00 | 76 | 1021.5 |
| 20260509011407 | 61 | 198 | 3.0 | 5.0 | 0.00 | 0.00 | 0.00 | 76 | 1021.5 |
| 20260509010907 | 61 | 360 | 4.0 | 6.0 | 0.00 | 0.00 | 0.00 | 75 | 1021.6 |
| 20260509010407 | 61 | 200 | 4.0 | 6.0 | 0.00 | 0.00 | 0.00 | 75 | 1021.6 |
| 20260509005707 | 62 | 198 | 3.0 | 7.0 | 0.00 | 0.00 | 0.00 | 73 | 1021.5 |
| 20260509005206 | 62 | 196 | 4.0 | 7.0 | 0.00 | 0.00 | 0.00 | 73 | 1021.5 |
| 20260509004507 | 62 | 186 | 3.0 | 4.0 | 0.00 | 0.00 | 0.00 | 72 | 1021.5 |
| 20260509004007 | 62 | 236 | 3.0 | 4.0 | 0.00 | 0.00 | 0.00 | 73 | 1021.6 |
| 20260509003506 | 62 | 213 | 1.0 | 4.0 | 0.00 | 0.00 | 0.00 | 72 | 1021.6 |
| 20260509002807 | 62 | 225 | 2.0 | 4.0 | 0.00 | 0.00 | 0.00 | 72 | 1021.5 |
| 20260509002307 | 62 | 360 | 3.0 | 6.0 | 0.00 | 0.00 | 0.00 | 74 | 1021.4 |
| 20260509001807 | 62 | 234 | 2.0 | 6.0 | 0.00 | 0.00 | 0.00 | 71 | 1021.4 |
| 20260509001307 | 62 | 236 | 4.0 | 8.0 | 0.00 | 0.00 | 0.00 | 73 | 1021.4 |
| 20260509000807 | 62 | 163 | 1.0 | 8.0 | 0.00 | 0.00 | 0.00 | 73 | 1021.5 |
| 20260509000307 | 63 | 199 | 3.0 | 6.0 | 0.00 | 0.00 | 0.00 | 70 | 1021.5 |
| 20260508235807 | 63 | 206 | 4.0 | 6.0 | 0.00 | 0.00 | 0.00 | 73 | 1021.5 |
| 20260508235307 | 63 | 196 | 3.0 | 9.0 | 0.00 | 0.00 | 0.00 | 70 | 1021.4 |
| 20260508234807 | 63 | 360 | 6.0 | 9.0 | 0.00 | 0.00 | 0.00 | 71 | 1021.5 |
| 20260508234307 | 62 | 360 | 2.0 | 5.0 | 0.00 | 0.00 | 0.00 | 71 | 1021.5 |
| 20260508233807 | 62 | 360 | 2.0 | 5.0 | 0.00 | 0.00 | 0.00 | 72 | 1021.5 |
| 20260508233307 | 62 | 360 | 5.0 | 5.0 | 0.00 | 0.00 | 0.00 | 69 | 1021.5 |
| 20260508232807 | 62 | 360 | 2.0 | 8.0 | 0.00 | 0.00 | 0.00 | 67 | 1021.5 |
| 20260508232107 | 62 | 360 | 8.0 | 8.0 | 0.00 | 0.00 | 0.00 | 71 | 1021.4 |
| 20260508231607 | 62 | 360 | 4.0 | 6.0 | 0.00 | 0.00 | 0.00 | 68 | 1021.5 |
| 20260508231107 | 62 | 177 | 2.0 | 8.0 | 0.00 | 0.00 | 0.00 | 67 | 1021.5 |
| 20260508230607 | 62 | 360 | 2.0 | 8.0 | 0.00 | 0.00 | 0.00 | 68 | 1021.6 |
| 20260508230107 | 63 | 207 | 3.0 | 8.0 | 0.00 | 0.00 | 0.00 | 69 | 1021.5 |
| 20260508225607 | 64 | 213 | 8.0 | 8.0 | 0.00 | 0.00 | 0.00 | 67 | 1021.4 |
| 20260508225107 | 64 | 178 | 2.0 | 5.0 | 0.00 | 0.00 | 0.00 | 64 | 1021.3 |
| 20260508224607 | 64 | 180 | 1.0 | 5.0 | 0.00 | 0.00 | 0.00 | 66 | 1021.3 |
| 20260508223506 | 65 | 173 | 2.0 | 5.0 | 0.00 | 0.00 | 0.00 | 64 | 1021.3 |
| 20260508222607 | 64 | 190 | 2.0 | 9.0 | 0.00 | 0.00 | 0.00 | 64 | 1021.3 |
| 20260508222107 | 64 | 209 | 4.0 | 9.0 | 0.00 | 0.00 | 0.00 | 68 | 1021.4 |
| 20260508221407 | 63 | 198 | 2.0 | 8.0 | 0.00 | 0.00 | 0.00 | 68 | 1021.4 |
| 20260508220907 | 63 | 153 | 1.0 | 8.0 | 0.00 | 0.00 | 0.00 | 64 | 1021.4 |
| 20260508220407 | 63 | 181 | 5.0 | 7.0 | 0.00 | 0.00 | 0.00 | 69 | 1021.3 |
| 20260508215907 | 63 | 215 | 7.0 | 7.0 | 0.00 | 0.00 | 0.00 | 69 | 1021.3 |
| 20260508215407 | 63 | 208 | 5.0 | 7.0 | 0.00 | 0.00 | 0.00 | 68 | 1021.4 |
| 20260508214907 | 62 | 153 | 5.0 | 7.0 | 0.00 | 0.00 | 0.00 | 69 | 1021.4 |
| 20260508214207 | 62 | 167 | 5.0 | 7.0 | 0.00 | 0.00 | 0.00 | 65 | 1021.5 |
| 20260508213707 | 62 | 205 | 1.0 | 9.0 | 0.00 | 0.00 | 0.00 | 68 | 1021.4 |
| 20260508213207 | 62 | 184 | 2.0 | 10.0 | 0.00 | 0.00 | 0.00 | 64 | 1021.6 |
| 20260508212307 | 62 | 360 | 4.0 | 10.0 | 0.00 | 0.00 | 0.00 | 71 | 1021.5 |
| 20260508211807 | 62 | 205 | 6.0 | 10.0 | 0.00 | 0.00 | 0.00 | 70 | 1021.5 |
| 20260508211307 | 62 | 202 | 9.0 | 10.0 | 0.00 | 0.00 | 0.00 | 71 | 1021.4 |
| 20260508210807 | 61 | 360 | 10.0 | 10.0 | 0.00 | 0.00 | 0.00 | 72 | 1021.5 |
| 20260508210307 | 62 | 192 | 7.0 | 7.0 | 0.00 | 0.00 | 0.00 | 68 | 1021.4 |
| 20260508205807 | 62 | 144 | 5.0 | 7.0 | 0.00 | 0.00 | 0.00 | 70 | 1021.4 |
| 20260508205307 | 62 | 212 | 5.0 | 8.0 | 0.00 | 0.00 | 0.00 | 71 | 1021.3 |
| 20260508204807 | 61 | 165 | 4.0 | 10.0 | 0.00 | 0.00 | 0.00 | 75 | 1021.4 |
| 20260508204306 | 60 | 200 | 3.0 | 10.0 | 0.00 | 0.00 | 0.00 | 71 | 1021.2 |
| 20260508203607 | 61 | 221 | 1.0 | 7.0 | 0.00 | 0.00 | 0.00 | 71 | 1021.3 |
| 20260508203107 | 61 | 202 | 5.0 | 8.0 | 0.00 | 0.00 | 0.00 | 72 | 1021.2 |
| 20260508202607 | 60 | 237 | 6.0 | 11.0 | 0.00 | 0.00 | 0.00 | 70 | 1021.2 |
| 20260508202107 | 60 | 223 | 4.0 | 11.0 | 0.00 | 0.00 | 0.00 | 73 | 1021.2 |
| 20260508201607 | 60 | 213 | 11.0 | 11.0 | 0.00 | 0.00 | 0.00 | 73 | 1021.1 |
| 20260508201107 | 60 | 191 | 5.0 | 10.0 | 0.00 | 0.00 | 0.00 | 70 | 1021.1 |
| 20260508200607 | 60 | 215 | 8.0 | 10.0 | 0.00 | 0.00 | 0.00 | 70 | 1021.1 |
| 20260508200107 | 61 | 143 | 6.0 | 8.0 | 0.00 | 0.00 | 0.00 | 75 | 1021.1 |
| 20260508195607 | 61 | 194 | 8.0 | 8.0 | 0.00 | 0.00 | 0.00 | 71 | 1021.1 |
| 20260508195106 | 61 | 170 | 5.0 | 11.0 | 0.00 | 0.00 | 0.00 | 74 | 1021.1 |
| 20260508194607 | 60 | 225 | 6.0 | 11.0 | 0.00 | 0.00 | 0.00 | 74 | 1021.1 |
| 20260508194107 | 59 | 216 | 6.0 | 7.0 | 0.00 | 0.00 | 0.00 | 71 | 1021.1 |
| 20260508193607 | 59 | 194 | 3.0 | 8.0 | 0.00 | 0.00 | 0.00 | 71 | 1021.1 |
| 20260508193107 | 59 | 246 | 5.0 | 8.0 | 0.00 | 0.00 | 0.00 | 69 | 1021.0 |
| 20260508192607 | 59 | 267 | 4.0 | 10.0 | 0.00 | 0.00 | 0.00 | 70 | 1021.0 |
| 20260508191907 | 59 | 214 | 5.0 | 10.0 | 0.00 | 0.00 | 0.00 | 72 | 1021.1 |
| 20260508191407 | 59 | 193 | 3.0 | 9.0 | 0.00 | 0.00 | 0.00 | 71 | 1021.3 |
| 20260508190907 | 59 | 360 | 5.0 | 7.0 | 0.00 | 0.00 | 0.00 | 75 | 1021.3 |
| 20260508190407 | 58 | 200 | 4.0 | 9.0 | 0.00 | 0.00 | 0.00 | 74 | 1021.3 |
| 20260508185907 | 58 | 360 | 4.0 | 9.0 | 0.00 | 0.00 | 0.00 | 73 | 1021.3 |
| 20260508185406 | 57 | 360 | 9.0 | 9.0 | 0.00 | 0.00 | 0.00 | 72 | 1021.2 |
| 20260508184907 | 58 | 360 | 4.0 | 11.0 | 0.00 | 0.00 | 0.00 | 69 | 1021.3 |
| 20260508184207 | 58 | 360 | 10.0 | 11.0 | 0.00 | 0.00 | 0.00 | 72 | 1021.4 |
| 20260508183707 | 58 | 360 | 6.0 | 6.0 | 0.00 | 0.00 | 0.00 | 70 | 1021.5 |
| 20260508183207 | 58 | 360 | 3.0 | 10.0 | 0.00 | 0.00 | 0.00 | 73 | 1021.4 |
| 20260508182707 | 57 | 360 | 5.0 | 10.0 | 0.00 | 0.00 | 0.00 | 74 | 1021.4 |
| 20260508182206 | 57 | 360 | 5.0 | 9.0 | 0.00 | 0.00 | 0.00 | 72 | 1021.5 |
| 20260508181706 | 57 | 360 | 6.0 | 10.0 | 0.00 | 0.00 | 0.00 | 72 | 1021.5 |
| 20260508181007 | 56 | 360 | 8.0 | 13.0 | 0.00 | 0.00 | 0.00 | 75 | 1021.4 |
| 20260508180506 | 56 | 360 | 8.0 | 13.0 | 0.00 | 0.00 | 0.00 | 72 | 1021.3 |
| 20260508175607 | 56 | 360 | 4.0 | 10.0 | 0.00 | 0.00 | 0.00 | 77 | 1021.5 |
| 20260508174907 | 56 | 360 | 5.0 | 13.0 | 0.00 | 0.00 | 0.00 | 76 | 1021.4 |
| 20260508174407 | 56 | 360 | 8.0 | 13.0 | 0.00 | 0.00 | 0.00 | 78 | 1021.3 |
| 20260508173907 | 56 | 360 | 5.0 | 13.0 | 0.00 | 0.00 | 0.00 | 75 | 1021.2 |
| 20260508173407 | 56 | 360 | 5.0 | 8.0 | 0.00 | 0.00 | 0.00 | 74 | 1021.2 |
| 20260508172907 | 56 | 360 | 5.0 | 8.0 | 0.00 | 0.00 | 0.00 | 76 | 1021.0 |
| 20260508172407 | 56 | 360 | 3.0 | 8.0 | 0.00 | 0.00 | 0.00 | 74 | 1021.0 |
| 20260508171907 | 56 | 360 | 2.0 | 8.0 | 0.00 | 0.00 | 0.00 | 74 | 1021.0 |
| 20260508171407 | 56 | 134 | 1.0 | 7.0 | 0.00 | 0.00 | 0.00 | 75 | 1020.9 |
| 20260508170907 | 56 | 179 | 7.0 | 7.0 | 0.00 | 0.00 | 0.00 | 78 | 1020.8 |
| 20260508170406 | 55 | 360 | 4.0 | 6.0 | 0.00 | 0.00 | 0.00 | 79 | 1020.7 |
| 20260508165707 | 55 | 192 | 3.0 | 5.0 | 0.00 | 0.00 | 0.00 | 80 | 1020.6 |
| 20260508165207 | 55 | 203 | 3.0 | 4.0 | 0.00 | 0.00 | 0.00 | 82 | 1020.6 |
| 20260508164707 | 54 | 207 | 1.0 | 5.0 | 0.00 | 0.00 | 0.00 | 80 | 1020.6 |
| 20260508164206 | 55 | 215 | 4.0 | 5.0 | 0.00 | 0.00 | 0.00 | 79 | 1020.6 |
| 20260508163507 | 54 | 136 | 3.0 | 3.0 | 0.00 | 0.00 | 0.00 | 85 | 1020.6 |
| 20260508162807 | 52 | 360 | 0.0 | 3.0 | 0.00 | 0.00 | 0.00 | 89 | 1020.7 |
| 20260508161907 | 51 | 228 | 3.0 | 3.0 | 0.00 | 0.00 | 0.00 | 88 | 1020.8 |
| 20260508161406 | 51 | 229 | 1.0 | 2.0 | 0.00 | 0.00 | 0.00 | 89 | 1020.6 |
| 20260508160907 | 50 | 218 | 1.0 | 3.0 | 0.00 | 0.00 | 0.00 | 89 | 1020.6 |
| 20260508160407 | 50 | 219 | 2.0 | 3.0 | 0.00 | 0.00 | 0.00 | 89 | 1020.7 |
| 20260508155707 | 51 | 188 | 1.0 | 3.0 | 0.00 | 0.00 | 0.00 | 88 | 1020.6 |
| 20260508155206 | 51 | 360 | 1.0 | 2.0 | 0.00 | 0.00 | 0.00 | 88 | 1020.5 |
| 20260508154706 | 50 | 86 | 1.0 | 2.0 | 0.00 | 0.00 | 0.00 | 89 | 1020.5 |
| 20260508154207 | 50 | 360 | 0.0 | 2.0 | 0.00 | 0.00 | 0.00 | 89 | 1020.2 |
| 20260508153707 | 50 | 360 | 1.0 | 2.0 | 0.00 | 0.00 | 0.00 | 90 | 1020.4 |
| 20260508153207 | 50 | 360 | 0.0 | 2.0 | 0.00 | 0.00 | 0.00 | 90 | 1020.2 |
| 20260508152707 | 49 | 360 | 1.0 | 1.0 | 0.00 | 0.00 | 0.00 | 91 | 1019.9 |
| 20260508152207 | 49 | 360 | 0.0 | 2.0 | 0.00 | 0.00 | 0.00 | 92 | 1020.0 |
| 20260508151507 | 49 | 360 | 0.0 | 2.0 | 0.00 | 0.00 | 0.00 | 94 | 1020.0 |
| 20260508150807 | 48 | 360 | 0.0 | 2.0 | 0.00 | 0.00 | 0.00 | 94 | 1019.9 |
| 20260508150307 | 48 | 9 | 0.0 | 2.0 | 0.00 | 0.00 | 0.00 | 94 | 1019.7 |
| 20260508145807 | 48 | 10 | 1.0 | 1.0 | 0.00 | 0.00 | 0.00 | 95 | 1019.6 |
| 20260508145307 | 48 | 86 | 1.0 | 1.0 | 0.00 | 0.00 | 0.00 | 95 | 1019.7 |
| 20260508144607 | 47 | 85 | 0.0 | 2.0 | 0.00 | 0.00 | 0.00 | 96 | 1019.7 |
| 20260508144107 | 47 | 61 | 1.0 | 3.0 | 0.00 | 0.00 | 0.00 | 96 | 1019.7 |
| 20260508143407 | 47 | 56 | 2.0 | 3.0 | 0.00 | 0.00 | 0.00 | 97 | 1019.7 |
| 20260508142707 | 47 | 57 | 1.0 | 3.0 | 0.00 | 0.00 | 0.00 | 97 | 1019.7 |
| 20260508142207 | 46 | 90 | 2.0 | 2.0 | 0.00 | 0.00 | 0.00 | 97 | 1019.8 |
| 20260508141707 | 46 | 360 | 1.0 | 3.0 | 0.00 | 0.00 | 0.00 | 98 | 1019.7 |
| 20260508141206 | 46 | 360 | 2.0 | 3.0 | 0.00 | 0.00 | 0.00 | 98 | 1019.8 |
| 20260508140507 | 46 | 360 | 2.0 | 2.0 | 0.00 | 0.00 | 0.00 | 98 | 1019.8 |
| 20260508140006 | 46 | 360 | 1.0 | 2.0 | 0.00 | 0.00 | 0.00 | 98 | 1019.9 |
| 20260508135507 | 45 | 360 | 0.0 | 2.0 | 0.00 | 0.00 | 0.00 | 98 | 1019.9 |
| 20260508135007 | 45 | 360 | 0.0 | 2.0 | 0.00 | 0.00 | 0.00 | 98 | 1019.8 |
| 20260508134507 | 45 | 360 | 2.0 | 2.0 | 0.00 | 0.00 | 0.00 | 98 | 1019.8 |
| 20260508134007 | 45 | 360 | 0.0 | 1.0 | 0.00 | 0.00 | 0.00 | 98 | 1019.8 |
| 20260508133507 | 44 | 360 | 0.0 | 1.0 | 0.00 | 0.00 | 0.00 | 98 | 1019.8 |
| 20260508133007 | 44 | 360 | 0.0 | 1.0 | 0.00 | 0.00 | 0.00 | 98 | 1019.6 |
| 20260508132507 | 44 | 360 | 1.0 | 1.0 | 0.00 | 0.00 | 0.00 | 98 | 1019.7 |
| 20260508132007 | 44 | 360 | 0.0 | 1.0 | 0.00 | 0.00 | 0.00 | 98 | 1019.6 |
| 20260508131307 | 44 | 360 | 0.0 | 0.0 | 0.00 | 0.00 | 0.00 | 98 | 1019.4 |
| 20260508101204 | 43 | 360 | 0.0 | 2.0 | 0.00 | 0.00 | 0.00 | 97 | 1017.9 |
| 20260508100705 | 43 | 360 | 0.0 | 2.0 | 0.00 | 0.00 | 0.00 | 97 | 1017.8 |
| 20260508100204 | 43 | 360 | 0.0 | 2.0 | 0.00 | 0.00 | 0.00 | 97 | 1017.7 |
| 20260508095504 | 43 | 184 | 2.0 | 2.0 | 0.00 | 0.00 | 0.00 | 97 | 1017.6 |
| 20260508095004 | 43 | 184 | 0.0 | 1.0 | 0.00 | 0.00 | 0.00 | 97 | 1017.6 |
| 20260508094504 | 43 | 184 | 0.0 | 1.0 | 0.00 | 0.00 | 0.00 | 97 | 1017.6 |
| 20260508094004 | 43 | 184 | 0.0 | 1.0 | 0.00 | 0.00 | 0.00 | 97 | 1017.6 |